KOREASAT 5 (MUGUNGWHA 5)

Last updated on Sun Apr 12 2026 00:02:51 GMT+0000 (Coordinated Universal Time)

1 29349U 06034A 26101.49697406 -.00000355 00000+0 00000+0 0 9997 2 29349 1.6116 83.7848 0001661 330.3596 77.5440 1.00272949 40651
UTC large
Height (km)
Speed (km/s)
/
Latitude / Longitude
Inclination (degrees)
Orbital Period (minutes)
Azimuth
Elevation
Range (km)
Doppler Factor

Next 0 passes for location: London (51.5072 / 0.1276)

Sorry there are no passes over London.
KOREASAT 5 (MUGUNGWHA 5)